Погода в Мелитополе

Украина / Запорожская область     46°50′31″N   35°22′22″E
темп.,
°C
ветер,
м/с
пор.,
м/с
влажн.,
%
обл.,
%
осадки,
мм/ч
давл.,
гПа
погр.,
м
22 апреля, чт
чт2200:00+8юз37865 0.0 1020147
03:00+7юз22925 0.0 102034
06:00+7юз22935 0.0 102135
09:00+12ююз34725 0.0 1022533
12:00+16ююз335215 0.0 10221503
15:00+16ю555293 0.1 10211108
18:00+12ю697165 0.1 1022391
21:00+10ююз36813 0.1 1023106
23 апреля, пт
пт2300:00+9юз33821 0.0 102232
03:00+8юз22880 0.0 102225
06:00+7ююз348511 0.0 102250
09:00+13ююз4658100 0.0 1022560
12:00+15ююв5654100 0.0 1021786
15:00+17ю674551 0.0 10191382
18:00+14ю6965100 0.0 1018451
21:00+11ююз5878100 0.2 1018252
24 апреля, сб
сб2400:00+10зюз3778100 0.1 1017159
03:00+9зюз369297 0.1 1016176
06:00+8ссз588854 0.8 1017454
09:00+10сз56620 0.8 1019954
12:00+14зсз69415 0.0 10192087
15:00+15з8103499 0.0 10192722
18:00+12сз9105236 0.0 10201577
21:00+7зсз49523 0.0 1022184
25 апреля, вс
вс2500:00+5сз355683 0.0 102396
03:00+5зсз345889 0.0 102357
06:00+3сз236498 0.0 102333
09:00+9сз234591 0.0 1023762
12:00+12ссз2333100 0.0 10221769
15:00+13ссз2231100 0.0 10211920
18:00+11ю4444100 0.0 1020691
21:00+7ююз3459100 0.0 102189
26 апреля, пн
пн2600:00+6зюз3361100 0.0 102143
03:00+6з336140 0.0 101952
06:00+5зсз3469100 0.0 101964
09:00+10зюз454578 0.0 1019617
12:00+12зсз8865100 0.1 10181343
15:00+12з475124 0.2 10181610
18:00+13зсз563925 0.0 10182096
21:00+8з34535 0.0 101952